TimeCST,TemperatureF,Dew PointF,Humidity,Sea Level PressureIn,VisibilityMPH,Wind Direction,Wind SpeedMPH,Gust SpeedMPH,PrecipitationIn,Events,Conditions,WindDirDegrees,DateUTC
12:56 AM,45.0,44.1,97,30.11,7.0,Calm,Calm,-,N/A,,Clear,0,2014-01-04 06:56:00
1:56 AM,43.0,42.1,97,30.09,10.0,Calm,Calm,-,N/A,,Clear,0,2014-01-04 07:56:00
2:56 AM,43.0,42.1,97,30.08,10.0,Calm,Calm,-,N/A,,Clear,0,2014-01-04 08:56:00
3:22 AM,43.0,42.1,97,30.08,8.0,Calm,Calm,-,N/A,,Mostly Cloudy,0,2014-01-04 09:22:00
3:56 AM,44.1,43.0,96,30.06,3.0,Calm,Calm,-,N/A,,Partly Cloudy,0,2014-01-04 09:56:00
3:59 AM,44.1,43.0,96,30.07,1.8,Calm,Calm,-,N/A,,Partly Cloudy,0,2014-01-04 09:59:00
4:19 AM,42.1,42.1,100,30.06,1.0,Calm,Calm,-,N/A,,Mist,0,2014-01-04 10:19:00
4:35 AM,41.0,39.9,96,30.06,0.8,Calm,Calm,-,N/A,,Mist,0,2014-01-04 10:35:00
4:42 AM,41.0,39.9,96,30.06,1.2,Calm,Calm,-,N/A,,Mostly Cloudy,0,2014-01-04 10:42:00
4:56 AM,43.0,43.0,100,30.05,1.8,Calm,Calm,-,N/A,,Mostly Cloudy,0,2014-01-04 10:56:00
5:05 AM,43.0,43.0,100,30.06,3.0,Calm,Calm,-,N/A,,Mostly Cloudy,0,2014-01-04 11:05:00
5:56 AM,44.1,43.0,96,30.05,10.0,Calm,Calm,-,N/A,,Partly Cloudy,0,2014-01-04 11:56:00
6:56 AM,43.0,42.1,97,30.04,2.0,Calm,Calm,-,N/A,,Partly Cloudy,0,2014-01-04 12:56:00
7:08 AM,43.0,42.1,97,30.05,5.0,Calm,Calm,-,N/A,,Mostly Cloudy,0,2014-01-04 13:08:00
7:56 AM,46.0,46.0,100,30.05,10.0,Calm,Calm,-,N/A,,Mostly Cloudy,0,2014-01-04 13:56:00
8:56 AM,52.0,51.1,97,30.05,10.0,SSE,4.6,-,N/A,,Mostly Cloudy,160,2014-01-04 14:56:00
9:56 AM,63.0,55.9,78,30.06,10.0,South,10.4,-,N/A,,Clear,190,2014-01-04 15:56:00
10:56 AM,68.0,57.0,68,30.04,10.0,South,15.0,-,N/A,,Clear,180,2014-01-04 16:56:00
11:56 AM,72.0,57.0,59,30.00,10.0,South,17.3,27.6,N/A,,Partly Cloudy,180,2014-01-04 17:56:00
12:56 PM,75.0,57.0,53,29.95,10.0,South,19.6,-,0.00,,Clear,180,2014-01-04 18:56:00
1:56 PM,75.9,54.0,46,29.90,10.0,South,20.7,28.8,0.00,,Clear,180,2014-01-04 19:56:00
2:56 PM,75.9,55.9,50,29.88,10.0,South,13.8,-,N/A,,Clear,170,2014-01-04 20:56:00
3:56 PM,75.0,55.9,51,29.87,10.0,SSE,16.1,-,N/A,,Clear,160,2014-01-04 21:56:00
4:56 PM,73.0,57.0,57,29.86,10.0,South,18.4,-,N/A,,Clear,170,2014-01-04 22:56:00
5:56 PM,68.0,57.9,70,29.87,10.0,South,11.5,-,N/A,,Clear,170,2014-01-04 23:56:00
6:56 PM,64.9,54.0,68,29.87,10.0,SSE,10.4,-,N/A,,Clear,160,2014-01-05 00:56:00
7:56 PM,63.0,55.9,78,29.88,10.0,South,10.4,-,N/A,,Clear,180,2014-01-05 01:56:00
8:56 PM,61.0,55.9,83,29.88,10.0,SSE,9.2,-,N/A,,Clear,160,2014-01-05 02:56:00
9:56 PM,60.1,55.9,86,29.88,10.0,South,9.2,-,N/A,,Clear,170,2014-01-05 03:56:00
10:56 PM,60.1,57.0,90,29.87,10.0,South,10.4,-,N/A,,Clear,170,2014-01-05 04:56:00
11:56 PM,57.9,55.9,93,29.85,10.0,South,6.9,-,N/A,,Clear,170,2014-01-05 05:56:00